FW0788 Weather Reports


time (UTC)temp
C
wind
direction
speed
KPH
gust
KPH
rain 1hr
cm
rain 24hr
cm
rain mn
cm
humidity
%
barometer
mb
20210920055551 10 84 9.7 25.7 0.00 0.43 0.08 54 1001.7
20210920055051 10 105 8.0 37.0 0.00 0.43 0.08 55 1001.8
20210920054626 10 108 9.7 37.0 0.00 0.43 0.08 55 1001.7
20210920054056 11 115 8.0 25.7 0.00 0.43 0.08 57 1001.6
20210920053608 11 136 8.0 29.0 0.00 0.43 0.08 57 1001.7
20210920053117 11 47 9.7 24.1 0.00 0.43 0.08 57 1001.7
20210920052558 11 138 14.5 37.0 0.00 0.43 0.08 56 1001.7
20210920052049 11 129 17.7 30.6 0.00 0.43 0.08 56 1001.8
20210920051552 11 98 6.4 20.9 0.00 0.43 0.08 58 1001.5
20210920051053 11 88 8.0 27.4 0.00 0.43 0.08 57 1001.7
20210920050552 11 127 9.7 27.4 0.00 0.43 0.08 55 1001.6
20210920050216 12 114 6.4 29.0 0.00 0.43 0.08 56 1001.5
20210920045554 12 155 11.3 29.0 0.00 1.17 0.08 55 1001.4
20210920045048 12 84 6.4 19.3 0.00 1.17 0.08 58 1001.4
20210920044625 11 143 3.2 24.1 0.00 1.17 0.08 58 1001.4
20210920044048 11 102 8.0 24.1 0.00 1.17 0.08 56 1001.4
20210920043548 12 103 11.3 24.1 0.00 1.17 0.08 55 1001.5
20210920043304 12 135 6.4 22.5 0.00 1.17 0.08 55 1001.4
20210920042547 12 355 9.7 24.1 0.00 1.17 0.08 53 1001.3
20210920042048 12 96 6.4 25.7 0.00 1.17 0.08 54 1001.2
20210920041633 12 117 8.0 25.7 0.00 1.17 0.08 53 1001.2
20210920041046 12 92 9.7 25.7 0.00 1.17 0.08 53 1001.2
20210920040625 12 180 8.0 25.7 0.00 1.17 0.08 54 1001.4
20210920040102 12 131 6.4 24.1 0.00 1.17 0.08 54 1001.3
20210920035556 12 114 6.4 24.1 0.00 1.17 0.08 54 1001.4
20210920035049 12 115 8.0 22.5 0.00 1.17 0.08 54 1001.3
20210920034717 11 65 6.4 25.7 0.00 1.17 0.08 53 1001.3
20210920034044 11 86 8.0 25.7 0.00 1.17 0.08 56 1001.2
20210920033554 12 92 4.8 24.1 0.00 1.17 0.08 55 1001.1
20210920033114 12 85 9.7 24.1 0.00 1.17 0.08 54 1001.2
20210920032612 12 55 8.0 24.1 0.00 1.17 0.08 54 1001.3
20210920032057 12 137 8.0 24.1 0.00 1.17 0.08 53 1001.2
20210920031622 12 80 8.0 27.4 0.00 1.17 0.08 52 1001.2
20210920031043 12 106 11.3 27.4 0.00 1.17 0.08 51 1001.0
20210920030546 12 144 4.8 16.1 0.00 1.17 0.08 56 1000.9
20210920030153 12 103 6.4 25.7 0.00 1.17 0.08 57 1000.9
20210920025543 12 90 8.0 19.3 0.00 1.32 0.08 59 1000.9
20210920025045 12 110 8.0 19.3 0.00 1.32 0.08 58 1000.9
20210920024540 12 132 9.7 22.5 0.00 1.32 0.08 57 1001.1
20210920024042 12 50 11.3 25.7 0.00 1.32 0.08 56 1001.2
20210920023538 12 115 9.7 25.7 0.00 1.32 0.08 58 1001.2
20210920023044 12 127 11.3 27.4 0.00 1.32 0.08 57 1001.2
20210920022606 11 96 11.3 27.4 0.00 1.32 0.08 58 1001.3
20210920022040 11 117 9.7 37.0 0.00 1.32 0.08 58 1001.3
20210920021549 11 25 11.3 37.0 0.00 1.32 0.08 57 1001.3
20210920021040 11 143 11.3 25.7 0.00 1.32 0.08 59 1001.0
20210920020534 11 137 4.8 20.9 0.00 1.32 0.08 61 1001.1
20210920020053 11 46 6.4 19.3 0.00 1.32 0.08 62 1001.1
20210920015532 11 80 8.0 20.9 0.00 1.37 0.08 63 1001.3
20210920015044 11 191 6.4 22.5 0.00 1.37 0.08 62 1001.4
20210920014538 11 89 4.8 22.5 0.00 1.37 0.08 66 1001.4
20210920014028 11 144 3.2 12.9 0.00 1.37 0.08 67 1001.4
20210920013533 11 63 4.8 14.5 0.00 1.37 0.08 66 1001.3
20210920013059 11 134 6.4 14.5 0.00 1.37 0.08 67 1001.4
20210920012558 11 101 6.4 19.3 0.00 1.37 0.08 67 1001.3
20210920012030 11 162 8.0 22.5 0.00 1.37 0.08 68 1001.3
20210920011531 10 136 8.0 22.5 0.00 1.37 0.08 70 1001.3
20210920011024 10 89 6.4 14.5 0.00 1.37 0.08 72 1001.4
20210920010525 10 144 4.8 16.1 0.00 1.37 0.08 73 1001.2
20210920010034 10 205 4.8 19.3 0.00 1.37 0.08 72 1001.2
20210920005524 10 130 9.7 20.9 0.00 1.37 0.08 74 1001.3
20210920005030 9 61 6.4 20.9 0.00 1.37 0.08 77 1001.4
20210920004546 8 90 6.4 12.9 0.00 1.37 0.08 78 1001.3
20210920004037 8 125 1.6 17.7 0.00 1.37 0.08 77 1001.5
20210920003521 8 115 3.2 24.1 0.00 1.37 0.08 74 1001.3
20210920003039 9 127 4.8 25.7 0.00 1.37 0.08 71 1001.5
20210920002521 10 253 3.2 25.7 0.00 1.37 0.08 68 1001.4
20210920002028 11 63 9.7 22.5 0.00 1.37 0.08 68 1001.7
20210920001537 11 98 3.2 22.5 0.00 1.37 0.08 67 1001.1
20210920001019 11 144 4.8 17.7 0.00 1.37 0.08 68 1000.8
20210920000518 11 103 3.2 17.7 0.00 1.37 0.08 69 1000.8
20210920000026 11 150 8.0 17.7 0.00 1.37 0.08 68 1001.0
20210919235516 11 126 6.4 20.9 0.00 1.40 0.08 70 1000.9
20210919235035 10 118 4.8 22.5 0.00 1.40 0.08 70 1000.9
20210919234518 10 178 6.4 22.5 0.00 1.40 0.08 70 1001.0
20210919234014 10 102 9.7 22.5 0.00 1.40 0.08 69 1001.0
20210919233513 10 140 11.3 22.5 0.00 1.40 0.08 69 1000.9
20210919233014 10 131 9.7 25.7 0.00 1.40 0.08 70 1000.8
20210919232513 10 188 11.3 30.6 0.00 1.40 0.08 70 1000.8
20210919232012 10 109 9.7 24.1 0.00 1.40 0.08 70 1000.6
20210919231522 10 72 8.0 27.4 0.00 1.40 0.08 68 1000.5
20210919231018 10 53 4.8 27.4 0.00 1.40 0.08 70 1000.5
20210919230510 10 85 8.0 17.7 0.00 1.40 0.08 70 1000.6
20210919230019 10 126 8.0 17.7 0.00 1.40 0.08 71 1000.7
20210919225508 10 157 3.2 19.3 0.00 1.42 0.08 73 1000.6
20210919225007 10 73 4.8 20.9 0.00 1.42 0.08 73 1000.5
20210919224513 10 157 3.2 27.4 0.00 1.42 0.08 74 1000.5
20210919224010 9 78 14.5 27.4 0.00 1.42 0.08 73 1000.5
20210919223505 10 80 8.0 19.3 0.00 1.42 0.08 73 1000.4
20210919223011 10 76 8.0 22.5 0.00 1.42 0.08 73 1000.2
20210919222506 10 128 6.4 22.5 0.00 1.42 0.08 74 1000.1
20210919222007 10 69 4.8 17.7 0.00 1.42 0.08 75 1000.0
20210919221521 10 96 6.4 27.4 0.00 1.42 0.08 75 1000.1
20210919221002 9 132 9.7 27.4 0.00 1.42 0.08 77 1000.1
20210919220132 8 34 8.0 19.3 0.00 1.42 0.08 78 1000.1
20210919215558 8 86 8.0 19.3 0.00 1.42 0.08 77 999.9
20210919215108 8 119 6.4 20.9 0.00 1.42 0.08 77 999.8
20210919214704 9 129 12.9 33.8 0.00 1.42 0.08 76 999.8
20210919214142 9 124 8.0 33.8 0.00 1.42 0.08 77 999.8
20210919213557 9 92 4.8 22.5 0.00 1.42 0.08 78 1000.0
20210919213127 9 99 12.9 22.5 0.00 1.42 0.08 77 1000.0
20210919212556 9 106 6.4 17.7 0.00 1.42 0.08 78 1000.0
20210919212055 8 100 6.4 16.1 0.00 1.42 0.08 78 999.9
20210919211637 8 132 9.7 22.5 0.00 1.42 0.08 78 999.9
20210919211054 8 145 3.2 22.5 0.00 1.42 0.08 79 999.9
20210919210553 8 119 4.8 12.9 0.00 1.42 0.08 80 1000.0
20210919210140 8 140 1.6 16.1 0.00 1.42 0.08 79 999.9
20210919205553 8 82 4.8 19.3 0.00 1.55 0.08 80 999.8
20210919205053 8 77 3.2 19.3 0.00 1.55 0.08 80 999.9
20210919204651 8 92 6.4 17.7 0.00 1.55 0.08 80 999.8
20210919204119 8 134 3.2 19.3 0.00 1.55 0.08 80 999.8
20210919203551 8 133 8.0 19.3 0.00 1.55 0.08 80 999.5
20210919203229 8 64 4.8 16.1 0.00 1.55 0.08 79 999.5
20210919202549 8 76 3.2 22.5 0.00 1.55 0.08 79 999.5
20210919202054 8 111 4.8 22.5 0.00 1.55 0.08 79 999.4
20210919201559 8 95 6.4 16.1 0.00 1.55 0.08 79 999.3
20210919201051 8 202 4.8 17.7 0.00 1.55 0.08 79 999.1
20210919200553 8 130 4.8 24.1 0.00 1.55 0.08 79 999.3
20210919200154 8 157 8.0 24.1 0.00 1.55 0.08 80 999.3
20210919195545 8 92 6.4 25.7 0.00 1.55 0.08 80 999.3
20210919195044 8 122 4.8 25.7 0.00 1.55 0.08 81 999.4
20210919194558 8 51 6.4 30.6 0.00 1.55 0.08 81 999.4
20210919194043 8 131 6.4 30.6 0.00 1.55 0.08 82 999.5
20210919193545 8 101 6.4 22.5 0.00 1.55 0.08 83 999.5
20210919193055 7 157 4.8 22.5 0.00 1.55 0.08 84 999.4
20210919192542 7 150 3.2 24.1 0.00 1.55 0.08 84 999.3
20210919192105 7 134 6.4 24.1 0.00 1.55 0.08 85 999.4
20210919191738 7 82 1.6 11.3 0.00 1.55 0.08 85 999.4
20210919191039 7 167 4.8 17.7 0.00 1.55 0.08 85 999.4
20210919190542 7 97 6.4 17.7 0.00 1.55 0.08 85 999.4
20210919190113 7 143 4.8 11.3 0.03 1.55 0.08 85 999.2
20210919185540 7 167 3.2 11.3 0.03 1.55 0.08 85 999.3
20210919185046 7 94 1.6 14.5 0.03 1.55 0.08 84 999.3
20210919184535 7 65 3.2 19.3 0.03 1.55 0.08 83 999.3
20210919184037 8 88 6.4 19.3 0.03 1.55 0.08 82 999.5
20210919183533 8 108 4.8 17.7 0.03 1.55 0.08 81 999.7
20210919183126 8 136 6.4 24.1 0.03 1.55 0.08 81 999.6
20210919182534 8 215 4.8 24.1 0.03 1.55 0.08 82 999.4
20210919182105 8 77 6.4 19.3 0.03 1.55 0.08 83 999.5
20210919181645 8 116 3.2 20.9 0.03 1.55 0.08 83 999.6
20210919181037 8 46 8.0 43.5 0.03 1.55 0.08 82 999.7
20210919180541 8 126 11.3 43.5 0.03 1.55 0.08 83 999.7
20210919180108 8 80 8.0 22.5 0.00 1.55 0.05 84 999.6
20210919175529 8 162 3.2 17.7 0.00 1.65 0.05 85 999.2
20210919175028 8 137 3.2 14.5 0.00 1.65 0.05 85 999.2
20210919174527 8 81 1.6 14.5 0.00 1.65 0.05 86 999.2
20210919174027 8 169 1.6 16.1 0.00 1.65 0.05 86 999.3
20210919173526 8 133 4.8 16.1 0.00 1.65 0.05 86 999.4
20210919173032 8 118 0.0 8.0 0.00 1.65 0.05 86 999.5
20210919172540 8 127 3.2 17.7 0.00 1.65 0.05 86 999.6
20210919172024 8 159 3.2 17.7 0.00 1.65 0.05 86 999.6
20210919171531 8 151 1.6 12.9 0.00 1.65 0.05 86 999.7
20210919171025 8 91 0.0 8.0 0.03 1.65 0.05 86 999.9
20210919170520 8 85 0.0 14.5 0.03 1.65 0.05 86 999.9
20210919170052 8 93 4.8 19.3 0.05 1.65 0.05 86 1000.0
20210919165519 8 167 1.6 9.7 0.05 1.65 0.05 85 1000.1
20210919165026 8 167 4.8 14.5 0.05 1.65 0.05 85 1000.3
20210919164553 8 111 1.6 14.5 0.05 1.65 0.05 86 1000.2
20210919164017 8 137 4.8 22.5 0.05 1.65 0.05 86 1000.3
20210919163518 8 71 8.0 22.5 0.05 1.65 0.05 88 1000.4
20210919163027 8 33 6.4 30.6 0.05 1.65 0.05 88 1000.4
20210919162517 8 151 8.0 30.6 0.05 1.65 0.05 88 1000.5
20210919162013 8 116 4.8 22.5 0.05 1.65 0.05 89 1000.4
20210919161523 8 112 6.4 19.3 0.05 1.65 0.05 88 1000.4
20210919161016 8 201 6.4 19.3 0.05 1.63 0.05 88 1000.6
20210919160510 8 239 1.6 11.3 0.03 1.60 0.03 88 1000.5
20210919160028 8 74 3.2 12.9 0.03 1.60 0.03 87 1000.6
20210919155509 8 131 4.8 14.5 0.03 1.60 0.03 87 1000.7
20210919155010 8 127 1.6 12.9 0.03 1.60 0.03 87 1000.8
20210919154518 8 126 4.8 12.9 0.03 1.60 0.03 86 1000.7
20210919154010 9 97 4.8 16.1 0.03 1.60 0.03 85 1000.8
20210919153509 9 81 6.4 20.9 0.03 1.60 0.03 84 1001.1
20210919153023 9 158 6.4 20.9 0.03 1.60 0.03 82 1001.2
20210919152504 9 148 3.2 19.3 0.00 1.57 0.00 80 1001.3
20210919152003 9 103 6.4 20.9 0.00 1.57 0.00 81 1001.4
20210919151504 9 144 6.4 20.9 0.00 1.57 0.00 80 1001.4
20210919151003 9 100 6.4 22.5 0.00 1.57 0.00 81 1001.5
20210919150601 9 97 6.4 22.5 0.00 1.57 0.00 81 1001.5
20210919150143 9 193 4.8 16.1 0.00 1.57 0.00 81 1001.4
20210919150003 9 78 4.8 16.1 0.00 1.57 0.00 81 1001.5
20210919145606 8 103 4.8 16.1 0.00 1.57 0.00 81 1001.5
20210919145112 8 103 6.4 16.1 0.00 1.57 0.00 81 1001.7
20210919144730 8 53 4.8 16.1 0.00 1.57 0.00 81 1001.8
20210919144153 8 140 4.8 14.5 0.00 1.57 0.00 83 1001.8
20210919143622 8 101 1.6 11.3 0.00 1.57 0.00 84 1001.9
20210919143127 8 52 3.2 8.0 0.00 1.57 0.00 84 1002.0
20210919142553 8 91 1.6 16.1 0.00 1.57 0.00 85 1002.0
20210919142051 8 105 3.2 17.7 0.00 1.57 0.00 85 1002.1
20210919141625 8 190 1.6 22.5 0.00 1.57 0.00 86 1002.2
20210919141051 8 45 4.8 22.5 0.00 1.57 0.00 87 1002.3
20210919140547 8 147 6.4 17.7 0.00 1.57 0.00 88 1002.3
20210919140054 8 87 3.2 17.7 0.00 1.57 0.00 88 1002.4
20210919135545 8 139 1.6 9.7 0.00 1.57 1.57 88 1002.4
20210919135045 8 119 4.8 16.1 0.00 1.57 1.57 88 1002.4
20210919134609 8 117 3.2 16.1 0.00 1.57 1.57 88 1002.3
20210919134050 8 130 4.8 17.7 0.00 1.57 1.57 88 1002.4
20210919133558 8 151 6.4 17.7 0.00 1.57 1.57 87 1002.7
20210919133115 9 138 3.2 12.9 0.00 1.57 1.57 87 1002.7
20210919132607 9 88 1.6 20.9 0.00 1.57 1.57 86 1002.5
20210919132057 8 113 6.4 17.7 0.00 1.57 1.57 87 1002.5
20210919131624 9 151 4.8 16.1 0.00 1.57 1.57 87 1002.7
20210919131042 8 111 3.2 11.3 0.00 1.57 1.57 86 1002.8
20210919130542 8 130 3.2 24.1 0.00 1.57 1.57 86 1002.8
20210919130053 8 137 3.2 24.1 0.00 1.57 1.57 86 1002.8
20210919125542 8 119 6.4 16.1 0.03 1.57 1.57 87 1002.8
20210919125046 8 114 3.2 20.9 0.03 1.57 1.57 87 1002.9
20210919124555 8 126 3.2 16.1 0.05 1.57 1.57 87 1002.9
20210919124041 8 101 3.2 16.1 0.05 1.57 1.57 87 1002.8
20210919123550 8 248 4.8 16.1 0.08 1.57 1.57 88 1002.9
20210919123126 8 32 8.0 16.1 0.08 1.57 1.57 88 1003.0
20210919122547 9 121 4.8 12.9 0.08 1.57 1.57 88 1002.9
20210919122041 9 202 4.8 17.7 0.08 1.57 1.57 88 1002.7
20210919121634 9 200 6.4 19.3 0.08 1.57 1.57 89 1002.9
20210919121041 9 96 3.2 19.3 0.08 1.57 1.57 89 1002.9
20210919120539 9 175 6.4 16.1 0.08 1.57 1.57 89 1002.9
20210919120118 9 138 4.8 16.1 0.08 1.57 1.57 88 1002.9
20210919115540 9 153 3.2 12.9 0.05 1.55 1.55 87 1003.0
20210919115039 9 192 3.2 16.1 0.05 1.55 1.55 86 1003.0
20210919114643 9 159 4.8 16.1 0.03 1.52 1.52 85 1002.5
20210919114044 9 226 4.8 11.3 0.03 1.52 1.52 84 1002.5
20210919113540 10 135 1.6 11.3 0.00 1.50 1.50 83 1002.8
20210919113052 10 85 4.8 11.3 0.00 1.50 1.50 82 1003.0
20210919112536 10 118 3.2 11.3 0.00 1.50 1.50 81 1002.8
20210919112041 9 250 3.2 8.0 0.00 1.50 1.50 81 1002.9
20210919111627 9 184 0.0 3.2 0.00 1.50 1.50 81 1003.1
20210919111045 9 153 0.0 4.8 0.00 1.50 1.50 81 1003.2
20210919110541 9 158 0.0 9.7 0.00 1.50 1.50 81 1003.2
20210919110057 10 137 0.0 9.7 0.00 1.50 1.50 81 1003.2
20210919105536 10 129 0.0 14.5 0.00 1.50 1.50 80 1003.4
20210919105042 10 163 4.8 14.5 0.00 1.50 1.50 80 1003.3
20210919104626 10 136 1.6 14.5 0.00 1.50 1.50 80 1003.5
20210919104037 10 190 3.2 14.5 0.00 1.50 1.50 80 1003.5
20210919103608 10 157 0.0 9.7 0.00 1.50 1.50 79 1003.5
20210919103037 10 135 1.6 9.7 0.00 1.50 1.50 79 1003.6
20210919102536 10 132 0.0 14.5 0.00 1.50 1.50 78 1003.6
20210919102035 10 146 4.8 14.5 0.00 1.50 1.50 78 1003.6
20210919101725 10 78 4.8 19.3 0.00 1.50 1.50 77 1003.6
20210919101035 10 155 1.6 19.3 0.00 1.50 1.50 77 1003.6
20210919100535 10 97 3.2 11.3 0.00 1.50 1.50 77 1003.6
20210919100053 10 120 3.2 14.5 0.00 1.50 1.50 76 1003.6
20210919095534 11 80 1.6 17.7 0.00 1.50 1.50 76 1003.6
20210919095051 11 111 4.8 17.7 0.00 1.50 1.50 75 1003.5
20210919094616 11 129 4.8 29.0 0.00 1.50 1.50 75 1003.6
20210919094041 11 101 6.4 29.0 0.00 1.50 1.50 76 1003.6
20210919093540 11 117 6.4 16.1 0.00 1.50 1.50 76 1003.6
20210919093040 11 169 3.2 14.5 0.00 1.50 1.50 77 1003.7
20210919092536 11 67 4.8 12.9 0.00 1.50 1.50 76 1003.6
20210919092033 10 53 1.6 16.1 0.00 1.50 1.50 76 1003.6
20210919091545 11 267 3.2 16.1 0.00 1.50 1.50 76 1003.4
20210919091036 11 43 4.8 12.9 0.00 1.50 1.50 75 1003.4
20210919090535 11 210 4.8 19.3 0.00 1.50 1.50 75 1003.2
20210919090052 10 188 6.4 19.3 0.00 1.50 1.50 76 1003.2
20210919085534 11 53 3.2 24.1 0.00 1.50 1.50 75 1002.8
20210919084618 11 310 3.2 20.9 0.00 1.50 1.50 76 1002.7
20210919084031 11 73 6.4 16.1 0.00 1.50 1.50 76 1002.8
20210919083534 11 103 1.6 16.1 0.00 1.50 1.50 76 1002.8
20210919083037 11 119 3.2 12.9 0.00 1.50 1.50 76 1002.8
20210919082530 10 120 3.2 12.9 0.00 1.50 1.50 76 1002.9
20210919082030 10 160 4.8 14.5 0.00 1.50 1.50 79 1002.8
20210919081536 11 155 1.6 16.1 0.00 1.50 1.50 79 1002.8
20210919081038 11 112 0.0 12.9 0.00 1.50 1.50 78 1002.7
20210919080531 11 188 3.2 22.5 0.00 1.50 1.50 77 1002.7
20210919080036 11 89 6.4 22.5 0.00 1.50 1.50 77 1002.8
20210919075544 11 36 1.6 19.3 0.00 1.50 1.50 77 1002.8
20210919075029 11 129 4.8 29.0 0.00 1.50 1.50 76 1002.9
20210919074534 11 280 3.2 17.7 0.00 1.50 1.50 77 1002.8
20210919074029 11 355 9.7 20.9 0.00 1.50 1.50 77 1002.8
20210919073529 11 217 6.4 20.9 0.00 1.50 1.50 77 1002.6
20210919073029 11 155 6.4 25.7 0.00 1.50 1.50 78 1002.4
20210919072527 11 140 6.4 25.7 0.00 1.50 1.50 80 1002.2
20210919072035 11 119 4.8 19.3 0.00 1.50 1.50 82 1002.4
20210919071622 11 200 6.4 22.5 0.00 1.50 1.50 82 1002.4
20210919071027 11 145 9.7 27.4 0.00 1.50 1.50 83 1002.4
20210919070533 11 32 8.0 27.4 0.00 1.50 1.50 83 1002.4
20210919070026 11 183 4.8 29.0 0.03 1.50 1.50 85 1002.4
20210919065530 11 173 4.8 24.1 0.05 1.52 1.50 87 1002.3
20210919065054 11 98 6.4 16.1 0.13 1.52 1.50 89 1002.1
20210919064542 11 92 6.4 17.7 0.15 1.52 1.50 90 1002.1
20210919064025 11 128 4.8 17.7 0.15 1.52 1.50 90 1002.0
20210919063535 11 89 4.8 25.7 0.20 1.52 1.50 90 1001.9
20210919063128 11 76 9.7 25.7 0.20 1.52 1.50 92 1002.0
20210919062528 11 144 6.4 19.3 0.23 1.52 1.50 93 1002.0
20210919062032 11 113 6.4 19.3 0.23 1.52 1.50 93 1002.1
20210919061527 11 157 8.0 27.4 0.23 1.52 1.50 93 1002.0
20210919061034 11 134 9.7 29.0 0.23 1.52 1.50 93 1002.1
20210919060531 11 128 8.0 29.0 0.25 1.52 1.50 93 1002.3
20210919060052 11 194 9.7 27.4 0.25 1.50 1.45 93 1001.9